This is the latest recevied weather packets stored in our database for station/object KQ7A. If no packets are shown the sender has not sent any weather packets the latest 10 day(s).
| Time | Temp. | Humidity | Pressure | Rain* | Wind** | Luminosity | Snow |
|---|---|---|---|---|---|---|---|
| 1777370351 | 1.67° C | 81% | 1019 hPa | 0 mm | - | 0 W/m² | - |
| 1777370046 | 1.67° C | 80% | 1019.1 hPa | 0 mm | - | 0 W/m² | - |
| 1777369744 | 1.67° C | 80% | 1019.1 hPa | 0 mm | - | 0 W/m² | - |
| 1777369134 | 2.22° C | 81% | 1019.2 hPa | 0 mm | - | 0 W/m² | - |
| 1777368832 | 2.22° C | 81% | 1019 hPa | 0 mm | - | 0 W/m² | - |
| 1777368526 | 2.22° C | 80% | 1019.2 hPa | 0 mm | - | 0 W/m² | - |
| 1777367920 | 2.22° C | 80% | 1019 hPa | 0 mm | - | 0 W/m² | - |
| 1777366701 | 3.33° C | 76% | 1019.1 hPa | 0 mm | - | 0 W/m² | - |
| 1777366397 | 3.89° C | 71% | 1019.1 hPa | 0 mm | - | 0 W/m² | - |
| 1777366093 | 3.89° C | 73% | 1019 hPa | 0 mm | - | 0 W/m² | - |
| 1777365485 | 3.89° C | 73% | 1019.1 hPa | 0 mm | - | 0 W/m² | - |
| 1777365183 | 3.89° C | 72% | 1019.2 hPa | 0 mm | - | 0 W/m² | - |
| 1777364882 | 4.44° C | 73% | 1019.3 hPa | 0 mm | - | 0 W/m² | - |
| 1777364577 | 4.44° C | 75% | 1019.2 hPa | 0 mm | - | 0 W/m² | - |
| 1777364274 | 5° C | 75% | 1019.1 hPa | 0 mm | - | 0 W/m² | - |
| 1777363970 | 5° C | 75% | 1019.1 hPa | 0 mm | - | 0 W/m² | - |
| 1777363667 | 5° C | 74% | 1019.1 hPa | 0 mm | - | 0 W/m² | - |
| 1777363363 | 5.56° C | 75% | 1019 hPa | 0 mm | - | 0 W/m² | - |
| 1777363061 | 5.56° C | 76% | 1019.2 hPa | 0 mm | - | 0 W/m² | - |
| 1777362757 | 6.11° C | 75% | 1019.1 hPa | 0 mm | - | 0 W/m² | - |
| 1777362456 | 6.11° C | 70% | 1019.1 hPa | 0 mm | - | 0 W/m² | - |
| 1777362153 | 6.11° C | 68% | 1019.2 hPa | 0 mm | - | 0 W/m² | - |
| 1777361850 | 6.11° C | 70% | 1019.2 hPa | 0 mm | - | 0 W/m² | - |
| 1777361547 | 6.11° C | 72% | 1019.3 hPa | 0 mm | - | 0 W/m² | - |
| 1777361245 | 6.11° C | 71% | 1019.1 hPa | 0 mm | - | 0 W/m² | - |
* Rain latest hour (hover to see other rain measurements)
** Current wind speed in m/s (hover to see current wind gust speed)